Location: Burjasot
(39.5167°N, 0.4167°W)
Time: 23:33:53
(UTC+02:00)

ISS - Pass Details

Date: 24 May 2019
Orbit: 408 x 419 km, 51.6° (Epoch: 21 June)

Event Time Altitude Azimuth Distance (km) Brightness Sun altitude
Rises 22:30:46 0° 287° (WNW) 2,348 1.3 -12.6°
Reaches altitude 10° 22:33:44 10° 315° (NW) 1,491 0.5 -13.0°
Maximum altitude 22:35:27 13° 346° (NNW) 1,309 -0.4 -13.3°
Drops below altitude 10° 22:37:10 10° 17° (NNE) 1,496 -0.6 -13.5°
Sets 22:40:09 0° 46° (NE) 2,364 0.0 -13.9°
